[[{"header":{"parameterUnit":"m.s-1","parameterCategory":1,"la1":30.2991,"la2":30.254,"lo1":-89.0895,"lo2":-89.0444,"dy":0.0017,"dx":0.0017,"nx":28,"ny":28,"refTime":"2025-08-01T21:00:00:Z","depth":0,"parameterNumber":2,"parameterNumberName":"U-component_of_WINDS"},"data":[0,0,0,0,0,0,0,0,0,0,0,0,0,0,0,0,0,0,0,0,0,0,0,0,0,0,0,0,0,0,0,0,0,0,0,0,0,0,0,0,0,0,0,0,0,0,0,0,0,0,0,0,0,0,0,0,0,0,0.6866,0.6866,0,0.6859,0.6859,0.6859,0.686,0.686,0.686,0.686,0.6851,0.685,0.685,0,0,0,0,0,0,0,0,0,0,0,0,0,0.6879,0.6879,0.6866,0.6866,0.6866,0.6859,0.6859,0.6859,0.686,0.686,0.686,0.686,0.6851,0.685,0.685,0,0,0,0,0,0,0,0,0,0,0,0,0,0.6873,0.6879,0.6866,0.6866,0.6866,0.6859,0.6859,0.6859,0.686,0.686,0.686,0.686,0.6851,0.685,0.685,0.6843,0,0,0.6848,0.6848,0,0,0,0,0,0,0,0,0.6873,0.6872,0.6866,0.6866,0.6866,0.6861,0.686,0.6854,0.686,0.6862,0.686,0.686,0.6854,0.6853,0.6851,0.6843,0.6842,0.6848,0.6848,0.6848,0.6848,0,0,0,0,0,0,0,0.6874,0.6873,0.6863,0.6866,0.6866,0.6865,0.6865,0.6859,0.6857,0.6862,0.6862,0.6861,0.6854,0.6852,0.6851,0.6842,0.6848,0.6848,0.6848,0.6847,0.6829,0.6829,0,0,0,0,0,0,0.6874,0.6873,0.6864,0.6863,0.687,0.6865,0.6864,0.6862,0.6857,0.6856,0.6861,0.6861,0.6853,0.6852,0.6851,0.6843,0.6848,0.6847,0.6847,0.6829,0.6829,0.6829,0,0,0,0,0,0,0.6875,0.6874,0.6864,0.6868,0.6867,0.6865,0.6862,0.6862,0.686,0.6856,0.6856,0.6859,0.6853,0.6851,0.6845,0.6843,0.6847,0.6847,0.6829,0.6829,0.6829,0.6827,0,0,0,0,0,0,0.6875,0.6874,0.6871,0.6868,0.6867,0.6859,0.6862,0.6861,0.6859,0.6859,0.6855,0.6854,0.6853,0.6846,0.6845,0.6842,0.6846,0.6829,0.6829,0.6829,0.6827,0.6827,0.6826,0,0,0,0,0,0.6876,0.6871,0.6871,0.687,0.6864,0.6859,0.6858,0.6857,0.6859,0.6856,0.6854,0.6854,0.6843,0.6846,0.6844,0.6841,0.683,0.6829,0.6829,0.6828,0.6827,0.6826,0,0,0,0,0,0,0.6873,0.687,0.6871,0.6865,0.6862,0.6859,0.6856,0.6856,0.6853,0.6853,0.6851,0.685,0.6844,0.6842,0.6845,0.6835,0.6837,0.6836,0.6836,0.6836,0.6835,0.6835,0.6846,0,0,0,0,0,0.6872,0.6868,0.6866,0.6861,0.686,0.6858,0.6856,0.6856,0.6853,0.6851,0.6849,0.6845,0.6841,0.6838,0.6834,0.6827,0.6826,0.6824,0.6824,0.6823,0.6823,0.6819,0.6818,0.6827,0.6827,0.6827,0,0,0.6869,0.6867,0.6865,0.6861,0.6858,0.6855,0.6857,0.6853,0.685,0.685,0.6845,0.6843,0.6839,0.6833,0.683,0.6831,0.682,0.6823,0.6823,0.6822,0.6819,0.6818,0.6817,0.6827,0.6827,0.6827,0,0,0.6862,0.6861,0.6856,0.6855,0.6852,0.6851,0.685,0.6847,0.6846,0.684,0.6841,0.6837,0.683,0.6827,0.6825,0.6818,0.6818,0.6817,0.6814,0.6811,0.681,0.6809,0.6807,0.6806,0.6816,0.6816,0.6816,0,0.6859,0.6854,0.6854,0.685,0.6848,0.6849,0.6845,0.6843,0.6839,0.6837,0.6838,0.683,0.6827,0.682,0.6819,0.6817,0.6816,0.6817,0.681,0.6809,0.6809,0.6807,0.6806,0.6816,0.6816,0.6816,0.6816,0,0.685,0.6847,0.6844,0.6841,0.6838,0.6834,0.6833,0.6831,0.6831,0.683,0.6824,0.6822,0.6817,0.6816,0.6815,0.6809,0.681,0.6811,0.6812,0.6808,0.6806,0.6805,0.6816,0.6816,0.6816,0.6816,0,0,0.6841,0.6839,0.6838,0.6836,0.6834,0.6831,0.6827,0.6823,0.6821,0.6818,0.6815,0.6809,0.681,0.6808,0.6807,0.6804,0.6799,0.6806,0.6805,0.6804,0.6793,0.6792,0.6791,0.68,0.6799,0.6799,0.6793,0,0.6834,0.6828,0.6828,0.6822,0.6819,0.682,0.6816,0.6814,0.6813,0.681,0.6809,0.6805,0.6807,0.6805,0.6802,0.6801,0.6797,0.6801,0.6796,0.6796,0.6797,0.679,0.6789,0.6783,0.6792,0.6792,0.6792,0,0.6825,0.6823,0.6817,0.6815,0.6814,0.6811,0.6808,0.6805,0.6802,0.6802,0.68,0.68,0.6795,0.6798,0.6792,0.6795,0.6793,0.6792,0.6791,0.6791,0.6793,0.6789,0.6781,0.678,0.6791,0.6791,0.6791,0,0.6819,0.6814,0.681,0.6809,0.6807,0.6805,0.6804,0.6802,0.68,0.6797,0.6796,0.6792,0.6791,0.6788,0.6787,0.6789,0.6781,0.6783,0.678,0.678,0.6778,0.6778,0.677,0.6777,0.6777,0.6777,0.6777,0,0.6811,0.6807,0.6808,0.6805,0.6801,0.6801,0.6797,0.6796,0.6794,0.6791,0.6792,0.6789,0.6788,0.6785,0.6784,0.6779,0.6778,0.6778,0.6778,0.6778,0.6778,0.6776,0.6776,0.6777,0.6777,0.6777,0.6777,0,0.6803,0.6804,0.6799,0.6798,0.6798,0.6794,0.6793,0.6791,0.679,0.6786,0.6786,0.6784,0.6781,0.678,0.6775,0.6775,0.677,0.677,0.6771,0.677,0.6767,0.6768,0.6758,0.6756,0.6764,0.6764,0.6764,0,0.6798,0.6795,0.6794,0.6793,0.6792,0.6789,0.6787,0.6788,0.6786,0.6783,0.6781,0.6778,0.6775,0.677,0.6768,0.6765,0.6765,0.6762,0.6764,0.6765,0.6765,0.6765,0.6765,0.6761,0.6761,0.6761,0.6761,0,0.6789,0.679,0.6787,0.6785,0.6784,0.6782,0.678,0.6779,0.6779,0.6777,0.6774,0.6772,0.6768,0.6764,0.6761,0.676,0.676,0.676,0.6759,0.6759,0.676,0.6759,0.6769,0.676,0.676,0.676,0.676,0.676,0.6783,0.678,0.6779,0.6777,0.6776,0.6775,0.6772,0.6772,0.6769,0.6767,0.6767,0.6764,0.6762,0.6758,0.6756,0.6753,0.6754,0.6753,0.6752,0.6752,0.6752,0.6761,0.6753,0.6753,0.6753,0.6753,0.6753,0,0.6774,0.6773,0.6771,0.6769,0.6767,0.6769,0.6767,0.6766,0.6763,0.6761,0.6759,0.6756,0.6753,0.6751,0.6748,0.6746,0.6747,0.6746,0.6746,0.6745,0.6751,0.6752,0.6746,0.6746,0.6746,0.6746,0.6746,0.6746,0.6769,0.6765,0.6765,0.6761,0.6761,0.6758,0.6757,0.6756,0.6755,0.6751,0.6749,0.6748,0.6747,0.6744,0.6742,0.6741,0.674,0.6739,0.6739,0.6744,0.6745,0.6746,0.6747,0.6739,0.6739,0.6733,0.6733,0.6733]},{"header":{"parameterUnit":"m.s-1","parameterCategory":1,"la1":30.2991,"la2":30.254,"lo1":-89.0895,"lo2":-89.0444,"dy":0.0017,"dx":0.0017,"nx":28,"ny":28,"refTime":"2025-08-01T21:00:00:Z","depth":0,"parameterNumber":3,"parameterNumberName":"V-component_of_WINDS"},"data":[0,0,0,0,0,0,0,0,0,0,0,0,0,0,0,0,0,0,0,0,0,0,0,0,0,0,0,0,0,0,0,0,0,0,0,0,0,0,0,0,0,0,0,0,0,0,0,0,0,0,0,0,0,0,0,0,0,0,-1.5114,-1.5113,0,-1.4952,-1.4951,-1.4949,-1.4861,-1.4861,-1.486,-1.486,-1.469,-1.4685,-1.4681,0,0,0,0,0,0,0,0,0,0,0,0,0,-1.5341,-1.5337,-1.5114,-1.5112,-1.511,-1.4953,-1.4951,-1.4948,-1.4861,-1.4861,-1.486,-1.486,-1.4691,-1.4686,-1.4681,0,0,0,0,0,0,0,0,0,0,0,0,0,-1.5217,-1.5336,-1.5115,-1.5048,-1.504,-1.4953,-1.495,-1.4948,-1.4861,-1.4861,-1.486,-1.486,-1.4693,-1.4686,-1.468,-1.4646,0,0,-1.466,-1.4657,0,0,0,0,0,0,0,0,-1.5224,-1.5209,-1.506,-1.5052,-1.5044,-1.4927,-1.4968,-1.4846,-1.4861,-1.4929,-1.486,-1.486,-1.4768,-1.4756,-1.4726,-1.4638,-1.463,-1.4659,-1.4655,-1.4653,-1.4651,0,0,0,0,0,0,0,-1.5233,-1.5215,-1.505,-1.5058,-1.5048,-1.5024,-1.5006,-1.4944,-1.4852,-1.4923,-1.4916,-1.4898,-1.4764,-1.4732,-1.4721,-1.4628,-1.466,-1.4654,-1.465,-1.4647,-1.4499,-1.4499,0,0,0,0,0,0,-1.5253,-1.5223,-1.5055,-1.5045,-1.5135,-1.502,-1.5,-1.4964,-1.4853,-1.4835,-1.4899,-1.4895,-1.4744,-1.4729,-1.4715,-1.4665,-1.4653,-1.4647,-1.4643,-1.4499,-1.4499,-1.4499,0,0,0,0,0,0,-1.5258,-1.5239,-1.5062,-1.5132,-1.5108,-1.5016,-1.4977,-1.4961,-1.493,-1.4834,-1.4817,-1.4884,-1.4743,-1.4724,-1.4663,-1.4658,-1.4644,-1.4638,-1.4499,-1.4499,-1.4499,-1.4567,0,0,0,0,0,0,-1.5265,-1.5241,-1.5229,-1.5133,-1.5105,-1.5015,-1.4977,-1.4958,-1.4919,-1.4913,-1.4816,-1.4799,-1.4741,-1.4673,-1.4657,-1.4649,-1.4633,-1.45,-1.4499,-1.4499,-1.4564,-1.4569,-1.4573,0,0,0,0,0,-1.5274,-1.5254,-1.5229,-1.5209,-1.5088,-1.5015,-1.4999,-1.4933,-1.4919,-1.4905,-1.4843,-1.4802,-1.4661,-1.4668,-1.4648,-1.4638,-1.45,-1.4499,-1.4499,-1.4563,-1.4568,-1.4573,0,0,0,0,0,0,-1.5351,-1.524,-1.5211,-1.5161,-1.5098,-1.5,-1.498,-1.4942,-1.488,-1.4877,-1.4796,-1.4775,-1.4721,-1.4673,-1.4683,-1.4597,-1.4576,-1.4572,-1.4631,-1.4635,-1.4639,-1.4651,-1.4627,0,0,0,0,0,-1.5363,-1.5315,-1.522,-1.5184,-1.5154,-1.5073,-1.5039,-1.4994,-1.4925,-1.4898,-1.4832,-1.4765,-1.4705,-1.4668,-1.4607,-1.4557,-1.4533,-1.454,-1.4545,-1.4549,-1.4546,-1.4513,-1.4514,-1.4499,-1.4499,-1.4499,0,0,-1.5385,-1.5319,-1.5293,-1.5198,-1.5144,-1.5094,-1.5051,-1.5001,-1.4962,-1.4889,-1.4828,-1.4777,-1.4697,-1.4641,-1.4612,-1.4599,-1.4544,-1.4549,-1.4552,-1.4547,-1.4513,-1.4514,-1.4516,-1.4499,-1.4499,-1.4499,0,0,-1.54,-1.5347,-1.531,-1.5257,-1.5176,-1.5122,-1.5113,-1.5021,-1.4984,-1.4922,-1.4866,-1.4817,-1.4717,-1.4661,-1.462,-1.4612,-1.4572,-1.4595,-1.4616,-1.4585,-1.4586,-1.4587,-1.4582,-1.4581,-1.4593,-1.4593,-1.4593,0,-1.5438,-1.5363,-1.5295,-1.5247,-1.5206,-1.5139,-1.5099,-1.505,-1.4954,-1.4925,-1.4912,-1.4783,-1.4725,-1.4653,-1.4652,-1.4621,-1.4606,-1.4605,-1.4592,-1.4592,-1.4591,-1.4586,-1.4584,-1.4596,-1.4596,-1.4595,-1.4595,0,-1.5412,-1.536,-1.5339,-1.5249,-1.5205,-1.5161,-1.5085,-1.5048,-1.5006,-1.4953,-1.4888,-1.4815,-1.4738,-1.4718,-1.4677,-1.464,-1.4634,-1.4608,-1.4584,-1.4597,-1.459,-1.4588,-1.4601,-1.4599,-1.4598,-1.4598,0,0,-1.5472,-1.5344,-1.5337,-1.5294,-1.52,-1.5157,-1.5109,-1.5035,-1.5004,-1.4939,-1.4895,-1.4811,-1.4785,-1.4738,-1.469,-1.4663,-1.4658,-1.4639,-1.4635,-1.4643,-1.461,-1.463,-1.4629,-1.4631,-1.4631,-1.463,-1.4616,0,-1.5472,-1.5385,-1.5322,-1.5258,-1.5208,-1.5143,-1.5101,-1.5037,-1.4985,-1.4933,-1.4875,-1.4816,-1.4787,-1.4758,-1.4729,-1.4665,-1.465,-1.4666,-1.4587,-1.4585,-1.4608,-1.4625,-1.4646,-1.4637,-1.4613,-1.4613,-1.4613,0,-1.5461,-1.5399,-1.5331,-1.524,-1.5216,-1.518,-1.5105,-1.5057,-1.4982,-1.4946,-1.4894,-1.4844,-1.4787,-1.477,-1.469,-1.4702,-1.4666,-1.463,-1.4628,-1.4617,-1.4599,-1.4613,-1.4633,-1.4631,-1.4608,-1.4608,-1.4609,0,-1.5509,-1.5409,-1.5354,-1.532,-1.5213,-1.5188,-1.5142,-1.5067,-1.5025,-1.496,-1.4932,-1.486,-1.4821,-1.4765,-1.4696,-1.469,-1.4622,-1.46,-1.4589,-1.4591,-1.4577,-1.4578,-1.4589,-1.4556,-1.4556,-1.4556,-1.4556,0,-1.5515,-1.5476,-1.5374,-1.5341,-1.5293,-1.522,-1.5174,-1.5122,-1.5055,-1.5009,-1.4948,-1.4905,-1.4817,-1.4762,-1.4708,-1.4649,-1.4632,-1.4599,-1.4585,-1.4604,-1.4608,-1.4578,-1.4576,-1.4556,-1.4556,-1.4556,-1.4556,0,-1.5561,-1.5492,-1.5428,-1.5332,-1.5306,-1.5275,-1.5191,-1.5155,-1.51,-1.5041,-1.5023,-1.4935,-1.4868,-1.4794,-1.4701,-1.4664,-1.4608,-1.4588,-1.4633,-1.4625,-1.4618,-1.4619,-1.4609,-1.4603,-1.4576,-1.4577,-1.4577,0,-1.5569,-1.5537,-1.5437,-1.5402,-1.5358,-1.5302,-1.526,-1.5185,-1.5143,-1.5054,-1.5028,-1.4956,-1.4895,-1.479,-1.4716,-1.4644,-1.4622,-1.4623,-1.461,-1.463,-1.4619,-1.4622,-1.4617,-1.4627,-1.4627,-1.4628,-1.4628,0,-1.559,-1.5556,-1.5499,-1.5428,-1.538,-1.532,-1.5258,-1.5233,-1.5145,-1.5101,-1.5032,-1.4984,-1.4889,-1.4818,-1.4737,-1.4687,-1.4642,-1.4633,-1.4626,-1.4645,-1.4672,-1.4655,-1.4642,-1.4633,-1.4633,-1.4632,-1.4632,-1.4632,-1.5615,-1.5582,-1.5507,-1.5444,-1.5389,-1.5332,-1.5293,-1.5233,-1.5174,-1.5092,-1.5052,-1.4982,-1.4905,-1.4792,-1.4743,-1.4686,-1.4672,-1.4663,-1.466,-1.4659,-1.4663,-1.4682,-1.4671,-1.4671,-1.4671,-1.467,-1.467,0,-1.563,-1.5578,-1.5521,-1.5437,-1.5386,-1.5351,-1.5279,-1.5239,-1.5179,-1.5112,-1.5053,-1.4972,-1.4902,-1.4823,-1.4748,-1.4717,-1.4695,-1.47,-1.47,-1.4689,-1.4681,-1.4693,-1.4719,-1.4719,-1.4719,-1.4719,-1.4719,-1.4719,-1.5633,-1.5575,-1.5533,-1.5447,-1.5394,-1.5327,-1.5289,-1.5236,-1.5181,-1.5095,-1.5037,-1.4986,-1.4913,-1.4832,-1.4765,-1.4743,-1.4717,-1.4728,-1.47,-1.4694,-1.469,-1.4686,-1.4697,-1.4724,-1.4724,-1.4713,-1.4713,-1.4713]}]]